Location: Unspecified
(0.0000°N, 0.0000°E)
Time: 00:32:40
(UTC+02:00)

Meteor 2-8 Rocket - Visible Passes

Search period start: 07 May 2016 00:00
Search period end: 17 May 2016 00:00
Orbit: 937 x 957 km, 82.5° (Epoch: 05 May)

Date Brightness Start Highest point End Pass type
(mag) Time Alt. Az. Time Alt. Az. Time Alt. Az.
07 May 4.6 21:29:13 41° SE 21:30:36 47° E 21:36:28 10° NNE visible
07 May 7.1 23:13:03 11° WSW 23:15:06 12° W 23:17:30 10° WNW visible
08 May 4.3 21:41:19 10° S 21:47:29 86° E 21:53:38 10° N visible
09 May 6.1 20:18:34 10° ESE 20:19:51 11° E 20:21:08 10° E visible
09 May 5.1 21:58:24 10° SSW 22:04:23 53° W 22:10:20 10° N visible
10 May 5.6 20:32:16 10° SE 20:36:45 21° E 20:41:13 10° NE visible
10 May 6.1 22:16:02 10° SW 22:21:15 29° W 22:26:29 10° NNW visible
11 May 4.9 20:47:59 10° SSE 20:53:38 38° E 20:59:16 10° NNE visible
11 May 7.0 22:34:35 10° WSW 22:38:09 16° W 22:41:43 10° NW visible
12 May 4.4 21:04:24 10° S 21:10:32 70° E 21:16:38 10° N visible
13 May 4.8 21:21:18 10° SSW 21:27:25 66° W 21:33:30 10° N visible
14 May 5.9 21:38:44 10° SSW 21:44:17 36° W 21:49:52 10° NNW visible
15 May 6.8 21:56:51 10° SW 22:01:11 20° W 22:05:31 10° NW visible
16 May 4.5 20:27:32 10° S 20:33:34 56° E 20:39:33 10° NNE visible
